Temp
35 35 35 33 31 22 24 33 34 33 33 33 31 28 30 30 31 31 33 32 32 31 32 31 30 29 27 24 25 25 25 24 23 24 26 27 27 27 28 28 25 25 25 25
35 34 36 35 35 32 33 35 34 34 33 32 33 33 32 31 31 31 32 32 32 31 32 31 30 30 29 27 26 24 25 24 23 25 26 26 28 27 28 28 26 26 25 25
35 36 36 35 35 34 35 35 35 34 34 34 34 30 33 33 32 32 33 32 33 33 32 33 31 30 29 28 27 26 25 24 24 26 26 25 26 26 27 27 27 26 25 25
35 37 35 35 35 35 35 36 35 34 33 25 35 23 22 34 33 32 33 33 33 33 33 33 33 31 30 29 28 27 25 25 24 25 26 26 25 26 28 28 28 27 26 26
34 35 34 34 35 36 35 36 36 35 35 35 35 35 32 35 34 33 33 34 34 32 33 33 33 32 32 30 29 27 26 25 25 25 24 26 25 27 27 28 27 26 25 25
35 36 36 36 36 36 36 36 36 36 36 35 36 35 33 33 34 35 35 34 34 34 31 34 34 33 33 31 30 29 26 25 24 25 24 25 26 26 26 26 26 27 27 26
34 35 36 36 35 36 36 36 35 34 35 34 36 35 35 35 36 36 36 35 34 33 34 33 34 34 32 32 31 30 27 25 24 25 25 24 25 25 25 25 27 28 28 28
34 33 35 36 36 36 35 36 35 33 35 35 35 34 36 37 37 36 35 35 34 34 33 34 34 33 32 31 31 30 28 25 25 25 25 25 25 25 25 25 25 26 24 28
35 35 37 37 37 36 36 35 38 36 37 36 37 36 37 37 36 35 36 34 34 34 34 33 34 33 33 31 31 30 29 26 26 26 25 25 25 25 26 27 25 25 27 23
36 34 36 36 36 36 36 37 35 36 33 33 36 35 35 35 35 36 35 35 35 34 33 34 34 33 32 31 31 30 29 27 26 26 26 25 25 25 25 26 25 26 25 26
37 36 35 36 35 36 35 35 35 36 36 34 34 34 37 36 36 35 35 35 35 34 34 33 33 33 32 31 31 30 29 28 27 27 27 26 26 26 26 26 26 25 26 25
36 36 35 35 36 36 36 35 36 35 34 35 35 35 37 36 35 35 34 34 34 33 33 33 32 32 31 31 30 30 29 29 28 28 27 27 26 26 27 26 26 25 25 25
37 35 34 35 36 35 34 36 36 36 37 34 33 34 34 35 34 34 33 34 33 32 32 33 32 31 30 30 29 28 27 27 28 29 28 28 27 27 27 27 26 26 25 25
35 35 35 34 31 33 32 34 35 35 34 34 35 34 32 34 34 34 33 33 32 32 32 31 31 31 30 29 29 27 26 26 27 28 29 28 27 27 27 27 26 26 25 25
35 34 35 35 35 34 34 34 34 33 33 32 34 33 34 35 34 33 33 32 31 31 31 31 30 30 29 28 28 26 25 25 26 26 27 27 27 26 26 26 26 25 25 25
35 33 34 33 35 34 33 34 34 34 34 33 33 33 35 34 33 32 31 31 31 30 30 30 29 28 27 27 27 26 25 23 24 24 24 25 25 25 25 25 25 24 24 24
34 34 33 32 34 33 32 33 34 34 34 34 32 34 34 33 32 32 32 31 31 30 30 29 28 25 25 25 24 26 25 23 22 22 23 23 24 24 25 24 24 24 24 24
34 33 33 32 32 29 34 35 34 33 33 34 33 33 33 32 32 32 31 30 30 30 28 27 26 25 24 24 24 24 23 22 22 22 23 23 23 23 22 23 23 23 23 23
35 33 32 32 32 33 34 34 34 32 32 33 33 33 32 32 31 30 31 29 29 27 25 26 25 25 25 23 22 22 21 21 21 21 22 21 22 22 22 22 22 22 21 21
35 34 33 32 31 30 33 34 34 33 30 33 33 31 31 31 29 28 28 27 27 27 26 25 25 24 21 20 21 19 20 20 19 19 20 20 20 21 21 21 20 19 19 18
32 32 31 32 31 33 34 33 33 30 30 30 30 31 31 30 28 26 24 23 22 23 24 23 23 23 21 18 17 17 17 17 17 18 18 18 19 19 19 18 18 18 18 17
31 31 31 32 31 30 33 32 31 31 31 31 30 30 30 29 26 24 23 23 22 23 23 23 22 22 21 19 18 17 17 16 16 16 17 17 18 18 18 18 17 17 16 16
32 33 32 32 29 31 33 32 32 32 31 30 29 29 29 27 25 22 22 22 23 22 22 22 22 21 21 20 18 16 17 16 16 16 16 15 16 17 16 15 15 15 14 14
33 33 32 32 33 32 33 32 31 31 30 30 29 29 29 26 23 23 23 22 22 22 22 20 19 19 19 18 18 16 16 16 16 15 15 15 16 15 15 15 14 15 14 14
31 32 32 32 31 32 32 31 31 30 30 29 29 29 28 26 24 22 21 22 20 18 17 17 16 16 17 17 17 16 16 16 15 15 15 15 15 15 14 14 14 14 14 15
27 27 32 32 32 31 32 32 31 30 29 29 28 27 26 26 25 24 20 17 18 21 18 17 17 16 16 17 17 17 16 16 17 16 16 16 14 14 14 14 14 14 15 16
Height
749 753 752 753 762 804 792 761 756 756 754 759 768 782 775 771 769 773 763 768 770 775 776 785 791 796 803 810 813 816 820 824 827 828 827 826 826 826 827 828 831 834 834 835
752 760 737 738 744 758 760 752 755 754 750 758 756 761 757 764 765 768 766 765 767 774 772 781 788 794 799 805 811 815 818 822 825 825 825 825 824 825 825 827 830 832 833 834
754 737 732 743 746 756 747 752 750 755 749 746 751 775 755 755 759 757 758 763 760 766 769 773 782 789 795 802 807 812 815 819 823 822 824 825 825 825 825 827 829 831 832 833
749 730 746 749 752 747 756 738 744 750 759 813 744 826 802 749 756 757 755 755 759 764 766 766 773 782 790 796 803 808 813 816 820 822 821 823 826 824 824 824 825 828 832 833
753 748 751 758 748 739 747 739 742 746 747 743 743 756 770 739 751 750 751 750 752 759 763 765 765 771 780 790 797 803 809 813 816 819 821 822 824 822 824 823 824 829 830 832
740 728 735 738 733 735 734 744 741 737 738 759 735 751 766 767 748 738 736 743 747 750 760 758 760 765 772 781 790 797 805 809 813 816 819 821 821 821 823 823 824 826 827 829
747 743 733 730 745 736 742 745 761 773 764 766 738 752 742 739 733 733 736 739 741 748 748 755 758 762 771 774 783 791 800 806 809 812 815 818 820 821 823 823 822 822 822 823
755 765 738 728 735 741 745 737 755 785 762 752 741 760 745 722 725 730 736 737 741 741 749 750 754 761 768 776 779 785 794 802 806 809 812 815 818 819 821 821 822 824 823 821
742 746 722 725 725 731 740 751 723 744 733 750 738 733 725 724 732 736 735 740 743 744 743 751 751 756 761 770 775 780 788 797 802 805 809 812 814 816 816 817 822 827 821 822
726 749 729 728 729 729 736 722 752 746 779 781 746 750 750 742 739 733 736 738 740 744 747 747 750 755 759 765 771 777 784 791 796 800 805 808 812 813 815 816 818 817 819 821
719 731 739 730 742 737 741 748 742 735 739 763 769 758 721 730 729 734 734 738 738 743 745 747 750 752 757 760 766 772 779 785 791 795 799 803 806 809 812 814 816 818 819 821
720 724 741 736 720 719 726 733 730 748 758 743 747 752 717 724 728 732 737 741 740 742 744 747 749 751 755 756 763 767 773 779 784 789 794 798 802 805 807 810 812 815 818 819
716 737 748 739 728 728 741 730 729 727 724 748 761 752 727 727 733 734 740 737 742 744 745 744 747 750 753 755 760 766 772 776 779 783 788 792 797 800 803 806 809 811 814 816
717 727 734 747 767 743 752 737 734 737 749 742 740 741 744 732 733 732 736 739 742 744 745 746 748 749 752 755 759 765 770 774 776 777 781 785 791 795 798 801 805 808 809 812
723 741 728 723 722 731 739 736 734 745 746 758 744 742 732 728 729 733 735 739 744 745 743 745 747 747 752 754 757 763 767 770 772 774 775 780 786 790 793 797 800 804 806 808
717 740 732 738 724 732 743 736 735 735 736 740 740 743 724 723 729 739 740 741 743 744 743 744 747 751 753 754 756 760 763 767 771 773 772 778 782 785 789 792 796 800 803 805
725 730 738 749 729 736 749 734 730 730 727 731 747 731 720 729 733 735 735 737 740 741 743 744 749 755 755 756 757 758 760 763 766 769 770 774 776 780 783 788 792 795 798 801
720 730 731 743 745 774 725 708 717 728 727 724 727 725 724 728 726 729 730 736 736 740 746 748 751 754 756 756 756 757 759 761 763 765 768 771 773 776 778 785 789 792 795 798
700 720 734 747 744 728 719 714 720 732 736 719 722 721 722 724 727 733 730 737 738 744 753 753 754 755 755 757 758 758 759 761 763 765 766 769 771 774 778 784 787 790 792 796
703 706 728 736 751 757 720 710 710 718 746 713 714 724 728 726 742 742 736 742 745 747 751 754 756 756 759 760 758 761 762 764 765 767 768 769 770 773 776 782 786 788 791 794
726 726 735 734 741 724 703 707 711 751 746 725 724 725 726 732 734 740 748 753 755 754 757 759 760 760 763 764 763 765 767 768 768 769 770 768 772 770 775 782 784 786 791 795
723 732 733 726 735 743 701 715 733 725 718 720 723 723 726 728 738 747 751 753 756 755 758 761 763 764 766 768 769 770 772 773 771 770 770 770 770 773 777 781 784 787 791 795
710 704 715 713 731 712 703 710 707 712 719 721 725 723 724 730 741 752 754 754 754 757 761 763 765 767 768 771 773 773 774 776 775 775 772 772 773 772 776 779 783 788 793 797
688 685 702 708 703 705 703 708 711 714 718 720 722 724 723 734 746 749 750 754 757 759 761 766 768 769 771 773 774 774 774 777 777 778 776 779 778 781 783 785 790 791 797 800
686 686 697 703 704 704 706 708 712 716 719 720 723 724 729 738 744 750 755 758 761 764 769 770 769 772 774 776 776 776 777 776 780 783 784 784 783 785 789 792 795 799 801 802
706 709 700 703 692 702 703 706 710 717 721 723 726 731 736 740 746 751 760 764 762 763 767 766 766 769 776 778 779 780 781 783 784 786 787 788 789 792 794 797 798 802 804 805
Wind_Speed
14 13 12 14 23 4 24 1 10 6 8 11 9 8 16 16 15 9 12 16 13 10 13 17 16 16 20 19 19 15 18 16 11 9 11 10 12 7 7 6 5 6 5 4
9 14 5 13 3 15 12 6 7 8 6 8 8 10 19 17 16 16 12 10 16 11 14 18 18 17 18 20 20 19 17 15 14 12 10 3 7 4 6 9 6 6 5 4
15 12 6 3 8 7 8 4 2 2 8 11 7 6 13 19 16 15 15 13 10 12 18 17 18 20 20 20 20 20 19 17 14 10 8 5 3 4 5 7 7 7 4 3
14 12 3 9 11 7 8 5 4 4 8 4 6 4 19 15 16 15 15 14 16 15 14 12 21 20 22 22 22 21 20 18 16 13 11 10 3 8 8 7 6 7 5 4
12 12 11 13 12 9 8 1 8 6 14 14 12 4 11 13 17 15 14 15 15 17 16 15 14 26 23 22 23 22 21 20 17 15 12 11 11 8 8 6 8 3 6 6
18 2 8 14 13 5 4 9 8 11 12 10 5 4 8 4 6 10 14 13 15 15 22 18 19 25 24 24 22 22 21 21 19 18 16 13 8 10 1 5 8 10 8 10
13 11 11 8 10 11 11 16 11 6 8 1 3 5 8 8 7 5 8 7 14 13 14 15 15 13 15 21 23 21 22 21 20 20 18 17 13 10 6 7 11 11 11 14
11 15 14 12 16 8 13 19 11 7 6 5 11 4 2 12 8 7 4 3 3 10 14 15 18 19 16 19 22 22 24 22 22 21 20 18 16 15 12 13 3 12 13 8
8 1 12 5 8 8 11 11 15 12 8 7 8 7 9 10 9 6 7 4 6 4 9 13 14 19 21 23 24 23 23 23 23 22 20 19 18 18 15 10 10 20 7 7
1 6 9 10 8 10 16 8 12 9 6 8 2 3 3 9 7 10 8 7 7 6 4 7 12 16 20 23 25 25 24 25 24 22 21 20 19 18 15 11 10 9 1 4
11 9 11 8 12 11 8 11 11 14 11 8 6 5 10 6 3 7 5 0 4 1 3 3 5 11 19 21 24 27 26 26 24 24 22 20 19 19 17 16 13 12 10 8
12 8 10 12 4 5 10 15 13 8 10 11 9 4 8 8 3 4 1 4 2 2 2 2 5 9 13 20 23 23 24 26 27 25 23 22 19 18 19 18 16 14 13 11
10 9 11 12 12 7 11 15 11 15 12 12 9 2 9 10 7 7 2 0 4 3 5 3 3 6 11 17 17 17 20 24 25 26 26 24 22 19 19 18 16 16 16 14
4 13 15 11 10 12 6 11 8 13 10 11 11 1 13 9 8 7 6 4 6 4 5 4 4 4 9 12 17 19 22 22 23 23 25 24 24 23 21 18 16 16 16 16
11 16 14 11 10 2 11 13 6 8 11 13 16 16 15 15 10 11 7 7 8 8 5 5 4 3 6 10 14 16 18 19 20 19 20 21 23 23 22 20 19 16 17 16
14 14 11 11 10 10 11 11 12 14 12 13 14 14 10 6 6 6 8 10 10 7 4 5 1 3 5 5 10 14 20 21 24 20 22 23 23 21 21 20 19 18 16 15
15 13 13 12 10 7 13 13 17 14 14 13 13 12 9 7 9 11 9 10 7 6 5 4 2 4 6 9 7 11 14 17 20 23 21 22 23 24 22 21 18 19 16 15
14 14 12 12 6 12 13 4 7 11 11 11 14 14 9 11 8 10 3 7 3 6 4 3 3 4 2 5 7 8 10 13 17 20 20 20 21 19 16 16 18 15 13 14
14 13 11 11 13 13 13 7 12 6 10 13 13 9 9 11 1 9 7 3 2 8 4 4 5 3 1 2 4 5 5 8 10 13 15 16 15 17 16 14 12 11 9 7
16 8 10 12 13 14 11 10 3 5 13 9 2 2 4 4 9 6 8 3 4 8 7 7 6 5 7 5 2 3 4 5 5 6 8 9 10 14 15 14 12 9 11 12
14 12 13 13 13 14 4 9 3 7 3 4 4 4 6 8 5 9 8 7 8 8 11 10 10 13 12 13 19 17 16 13 6 7 10 11 10 11 11 12 12 14 13 13
16 15 14 14 16 16 13 6 5 5 4 2 6 6 7 5 7 7 8 9 10 12 12 9 10 11 12 13 15 16 14 11 15 13 4 9 13 14 15 16 15 15 16 15
16 12 12 7 3 4 5 1 3 1 3 4 4 5 8 9 6 7 8 9 9 14 13 13 11 9 11 10 8 11 9 7 8 12 17 15 16 14 11 17 17 16 13 15
17 2 7 6 7 7 5 7 3 1 2 1 1 2 5 7 9 11 8 8 7 7 10 9 7 8 6 8 7 8 11 9 8 10 17 15 20 18 17 18 18 22 18 17
9 14 11 7 5 5 5 8 5 4 2 4 4 3 6 9 8 11 8 4 10 13 7 8 11 12 7 3 7 9 10 15 14 15 17 16 20 21 22 22 17 13 11 10
5 17 9 8 14 12 11 9 8 6 6 6 6 10 10 9 9 12 9 5 2 11 11 14 9 7 8 7 10 9 10 10 11 11 10 12 14 19 20 19 21 16 14 11
Wind_Direction
208 236 219 316 124 4 275 41 97 88 142 201 199 139 184 188 202 218 216 166 191 146 155 154 155 153 148 159 166 169 169 170 186 194 198 192 191 200 188 178 130 193 202 205
184 242 318 165 294 204 242 266 94 132 162 227 170 181 179 186 203 196 210 221 173 183 168 156 166 166 165 164 171 173 180 179 188 200 222 275 196 204 224 169 162 205 202 210
244 197 59 285 245 256 247 308 337 52 181 220 237 327 171 174 198 204 200 204 223 205 183 167 178 176 179 176 179 181 182 187 198 222 195 215 244 216 200 174 198 195 204 209
238 271 200 248 237 244 267 48 275 232 242 356 221 115 319 169 188 200 206 212 197 182 236 191 172 187 186 185 189 190 194 195 195 204 212 212 233 244 217 221 177 157 199 202
223 229 241 234 254 200 280 317 275 197 260 219 176 244 216 163 169 185 204 205 215 176 211 208 210 175 187 186 190 195 197 201 201 198 226 209 236 208 215 232 133 240 165 202
265 200 259 233 220 236 306 240 231 240 255 259 149 261 67 24 97 115 169 195 198 205 196 212 219 177 183 183 190 191 194 201 203 200 208 219 229 234 259 213 171 191 201 197
214 213 214 255 217 199 219 238 228 222 264 328 134 213 123 160 120 65 117 149 181 202 222 192 222 210 166 186 184 189 186 198 200 201 205 207 214 231 220 237 214 221 209 192
201 183 207 174 248 200 214 255 278 299 285 96 155 248 68 81 83 112 112 113 152 196 204 217 204 194 206 196 189 192 180 197 201 202 205 205 206 213 220 223 288 265 225 202
182 164 151 173 223 260 249 223 293 318 292 250 277 127 159 159 150 167 162 153 145 152 196 204 225 216 203 207 195 194 185 195 202 204 204 206 206 219 213 209 192 215 225 198
192 151 189 167 231 245 268 331 236 217 234 263 207 205 169 144 171 181 173 188 144 142 182 221 209 226 219 206 206 202 195 195 203 203 205 208 212 214 221 216 221 244 249 247
258 258 155 177 210 242 178 234 251 284 312 320 290 70 60 100 79 152 181 263 120 167 169 205 244 224 228 207 209 203 201 200 204 204 203 208 210 212 212 214 216 220 223 220
230 267 211 213 55 311 287 298 295 272 217 231 282 10 70 102 125 132 216 157 267 340 319 267 266 220 224 215 203 203 196 205 203 206 205 205 209 213 209 214 213 205 213 212
205 237 253 221 182 197 259 250 252 269 277 286 294 247 144 141 155 152 259 314 203 238 269 285 231 245 222 219 202 194 205 213 209 204 205 208 206 206 214 205 212 210 203 213
306 263 266 293 200 197 238 254 231 273 281 291 267 148 147 227 165 178 198 237 277 291 288 291 283 243 218 221 198 191 204 212 213 210 213 201 201 205 208 208 206 209 209 208
242 261 270 276 284 275 289 297 278 247 282 293 303 310 316 317 349 10 357 318 279 260 268 286 272 208 215 210 214 203 209 211 210 214 207 203 202 203 206 206 205 212 207 212
231 261 279 288 263 227 254 257 263 267 263 272 273 280 282 0 359 312 288 262 259 256 251 236 216 304 303 280 208 207 208 211 212 209 202 200 201 204 212 210 204 210 215 211
240 245 252 251 258 252 243 237 247 251 270 268 271 274 286 327 309 300 257 246 252 249 243 284 123 241 249 245 256 229 216 211 205 204 203 205 195 205 208 212 210 215 209 218
207 237 249 257 162 245 263 331 333 308 295 288 287 287 285 287 288 288 305 284 238 231 32 356 50 36 289 253 235 228 235 221 212 206 200 198 198 196 206 219 212 213 212 222
266 208 238 259 247 256 259 222 224 239 299 303 288 279 310 301 295 245 200 175 310 84 133 142 95 29 301 240 225 194 170 195 204 202 192 186 181 176 178 197 191 192 186 195
249 217 253 235 261 268 299 124 34 337 280 3 220 276 272 273 243 113 107 134 145 137 120 94 73 81 56 14 150 105 164 159 127 158 183 187 177 183 185 184 171 159 174 169
225 232 233 241 253 266 150 111 132 271 17 44 339 285 273 260 36 107 113 137 134 141 127 114 87 81 82 86 93 84 78 63 94 180 199 207 197 191 171 161 165 152 154 159
201 216 230 242 254 258 114 147 264 39 271 280 286 283 285 117 120 132 160 158 153 149 139 119 103 94 94 99 100 95 82 83 80 80 102 203 197 181 165 162 150 147 151 147
207 213 227 276 79 295 181 26 77 322 289 302 308 291 257 121 127 168 164 169 166 142 125 105 101 107 114 118 92 100 101 101 81 80 78 79 131 128 135 139 135 120 124 123
211 153 234 227 234 181 189 110 148 134 321 331 151 189 163 149 157 187 164 168 153 136 126 117 94 91 114 131 117 116 115 137 117 94 90 92 96 98 96 96 108 108 113 108
346 159 208 223 144 150 174 163 172 134 168 130 114 116 104 140 156 95 90 127 145 120 116 128 121 93 81 130 111 119 119 110 113 113 104 99 109 114 113 108 102 105 118 122
101 268 202 227 169 196 169 174 153 165 165 141 141 128 143 137 133 122 109 59 166 131 117 88 67 76 110 137 129 124 126 127 132 132 122 123 123 127 117 110 106 102 100 105